Terug naar catalogus

CZ-4 DEB

ActiefSSO
NORAD 26260·DEBRIS·🇨🇳 China

Gelanceerd Oct 14, 1999 vanaf Taiyuan Satellite Launch Center

Loading…

Volgende Passages (komende 24 uur)

TLE

VersSource: Space-Track

Epoch: Sep 14, 2026, 11:55 UTC

1 26260U 99057EW  26257.49665529  .00005250  00000-0  69993-3 0  9995
2 26260  98.3383 347.2953 0054741  71.9965 288.7200 14.79025864397308

Volg CZ-4 DEB in realtime met AllMySat

Download on the App Store